Location: Bazinghen
(50.8246°N, 1.6616°E)
Time: 10:11:05
(UTC+00:00)

Terra - Pass Details

Date: 09 April 2020
Orbit: 701 x 703 km, 98.2° (Epoch: 26 May)

Event Time Altitude Azimuth Distance (km) Brightness Sun altitude
Exits shadow 22:08:27 55° 258° (WSW) 850 2.2 -26.8°
Maximum altitude 22:08:28 55° 259° (W) 850 2.2 -26.8°
Drops below altitude 10° 22:13:10 10° 338° (NNW) 2,184 5.3 -27.2°
Sets 22:15:29 0° 343° (NNW) 3,108 6.4 -27.4°
